Time,TemperatureF,DewpointF,PressureIn,WindDirection,WindDirectionDegrees,WindSpeedMPH,WindSpeedGustMPH,Humidity,HourlyPrecipIn,Conditions,Clouds,dailyrainin,SolarRadiationWatts/m^2,SoftwareType,DateUTC
2013-04-25 00:03:00,60.0,55.0,-100.00,SSW,211,4.0,12.0,85,0.00,,,0.00,0.000000,,2013-04-25 04:03:00,
2013-04-25 00:13:00,60.0,55.0,-100.00,SSW,211,4.0,12.0,85,0.00,,,0.00,0.000000,,2013-04-25 04:13:00,
2013-04-25 00:23:00,60.0,55.0,-100.00,SSW,211,4.0,12.0,85,0.00,,,0.00,0.000000,,2013-04-25 04:23:00,
2013-04-25 00:52:00,60.0,56.0,-100.00,SW,215,4.0,13.0,86,0.00,,,0.00,0.000000,,2013-04-25 04:52:00,
2013-04-25 01:03:00,60.0,56.0,-100.00,SW,215,4.0,13.0,86,0.00,,,0.00,0.000000,,2013-04-25 05:03:00,
2013-04-25 01:12:00,60.0,56.0,-100.00,SW,215,4.0,13.0,86,0.00,,,0.00,0.000000,,2013-04-25 05:12:00,
2013-04-25 01:22:00,60.0,56.0,-100.00,SW,215,4.0,13.0,86,0.00,,,0.00,0.000000,,2013-04-25 05:22:00,
2013-04-25 01:52:00,60.0,57.0,-100.00,SW,235,5.0,11.0,89,0.00,,,0.00,0.000000,,2013-04-25 05:52:00,
2013-04-25 02:02:00,60.0,57.0,-100.00,SW,235,5.0,11.0,89,0.00,,,0.00,0.000000,,2013-04-25 06:02:00,
2013-04-25 02:12:00,60.0,57.0,-100.00,SW,235,5.0,11.0,89,0.00,,,0.00,0.000000,,2013-04-25 06:12:00,
2013-04-25 02:22:00,60.0,57.0,-100.00,SW,235,5.0,11.0,89,0.00,,,0.00,0.000000,,2013-04-25 06:22:00,
2013-04-25 02:52:00,63.0,55.0,-100.00,WNW,299,9.0,-999.0,76,0.00,,,0.00,,,2013-04-25 06:52:00,
2013-04-25 03:02:00,63.0,55.0,-100.00,WNW,299,9.0,-999.0,76,0.00,,,0.00,,,2013-04-25 07:02:00,
2013-04-25 03:12:00,63.0,55.0,-100.00,WNW,299,9.0,-999.0,76,0.00,,,0.00,,,2013-04-25 07:12:00,
2013-04-25 03:22:00,63.0,55.0,-100.00,WNW,299,9.0,-999.0,76,0.00,,,0.00,,,2013-04-25 07:22:00,
2013-04-25 03:53:00,58.0,40.0,-100.00,WNW,296,9.0,20.0,52,0.00,,,0.00,0.000000,,2013-04-25 07:53:00,
2013-04-25 04:02:00,58.0,40.0,-100.00,WNW,296,9.0,20.0,52,0.00,,,0.00,0.000000,,2013-04-25 08:02:00,
2013-04-25 04:11:00,58.0,40.0,-100.00,WNW,296,9.0,20.0,52,0.00,,,0.00,0.000000,,2013-04-25 08:11:00,
2013-04-25 04:21:00,58.0,40.0,-100.00,WNW,296,9.0,20.0,52,0.00,,,0.00,0.000000,,2013-04-25 08:21:00,
2013-04-25 04:52:00,55.0,40.0,-100.00,WNW,300,7.0,22.0,56,0.00,,,0.00,0.000000,,2013-04-25 08:52:00,
2013-04-25 05:01:00,55.0,40.0,-100.00,WNW,300,7.0,22.0,56,0.00,,,0.00,0.000000,,2013-04-25 09:01:00,
2013-04-25 05:11:00,55.0,40.0,-100.00,WNW,300,7.0,22.0,56,0.00,,,0.00,0.000000,,2013-04-25 09:11:00,
2013-04-25 05:21:00,55.0,40.0,-100.00,WNW,300,7.0,22.0,56,0.00,,,0.00,0.000000,,2013-04-25 09:21:00,
2013-04-25 05:53:00,50.0,40.0,-100.00,NW,326,8.0,20.0,68,0.00,,,0.00,0.000000,,2013-04-25 09:53:00,
2013-04-25 06:03:00,50.0,40.0,-100.00,NW,326,8.0,20.0,68,0.00,,,0.00,0.000000,,2013-04-25 10:03:00,
2013-04-25 06:12:00,50.0,40.0,-100.00,NW,326,8.0,20.0,68,0.00,,,0.00,0.000000,,2013-04-25 10:12:00,
2013-04-25 06:22:00,50.0,40.0,-100.00,NW,326,8.0,20.0,68,0.00,,,0.00,0.000000,,2013-04-25 10:22:00,
2013-04-25 06:53:00,48.0,39.0,-100.00,NW,314,8.0,18.0,71,0.00,,,0.00,0.000000,,2013-04-25 10:53:00,
2013-04-25 07:02:00,48.0,39.0,-100.00,NW,314,8.0,18.0,71,0.00,,,0.00,0.000000,,2013-04-25 11:02:00,
2013-04-25 07:12:00,48.0,39.0,-100.00,NW,314,8.0,18.0,71,0.00,,,0.00,0.000000,,2013-04-25 11:12:00,
2013-04-25 07:22:00,48.0,39.0,-100.00,NW,314,8.0,18.0,71,0.00,,,0.00,0.000000,,2013-04-25 11:22:00,
2013-04-25 07:52:00,49.0,35.0,-100.00,NW,311,9.0,19.0,59,0.00,,,0.00,43.000000,,2013-04-25 11:52:00,
2013-04-25 08:01:00,49.0,35.0,-100.00,NW,311,9.0,19.0,59,0.00,,,0.00,43.000000,,2013-04-25 12:01:00,
2013-04-25 08:12:00,49.0,35.0,-100.00,NW,311,9.0,19.0,59,0.00,,,0.00,43.000000,,2013-04-25 12:12:00,
2013-04-25 08:21:00,49.0,35.0,-100.00,NW,311,9.0,19.0,59,0.00,,,0.00,43.000000,,2013-04-25 12:21:00,
2013-04-25 08:52:00,50.0,33.0,-100.00,NNW,328,9.0,19.0,52,0.00,,,0.00,206.000000,,2013-04-25 12:52:00,
2013-04-25 09:02:00,50.0,33.0,-100.00,NNW,328,9.0,19.0,52,0.00,,,0.00,206.000000,,2013-04-25 13:02:00,
2013-04-25 09:11:00,50.0,33.0,-100.00,NNW,328,9.0,19.0,52,0.00,,,0.00,206.000000,,2013-04-25 13:11:00,
2013-04-25 09:21:00,50.0,33.0,-100.00,NNW,328,9.0,19.0,52,0.00,,,0.00,206.000000,,2013-04-25 13:21:00,
2013-04-25 09:53:00,52.0,34.0,-100.00,NNW,336,9.0,18.0,50,0.00,,,-99.99,472.000000,,2013-04-25 13:53:00,
2013-04-25 10:02:00,52.0,34.0,-100.00,NNW,336,9.0,18.0,50,0.00,,,-99.99,472.000000,,2013-04-25 14:02:00,
2013-04-25 10:11:00,52.0,34.0,-100.00,NNW,336,9.0,18.0,50,0.00,,,-99.99,472.000000,,2013-04-25 14:11:00,
2013-04-25 10:21:00,52.0,34.0,-100.00,NNW,336,9.0,18.0,50,0.00,,,-99.99,472.000000,,2013-04-25 14:21:00,
2013-04-25 10:52:00,53.0,35.0,-100.00,North,358,9.0,17.0,51,0.00,,,0.00,654.000000,,2013-04-25 14:52:00,
2013-04-25 11:02:00,53.0,35.0,-100.00,North,358,9.0,17.0,51,0.00,,,0.00,654.000000,,2013-04-25 15:02:00,
2013-04-25 11:11:00,53.0,35.0,-100.00,North,358,9.0,17.0,51,0.00,,,0.00,654.000000,,2013-04-25 15:11:00,
2013-04-25 11:21:00,53.0,35.0,-100.00,North,358,9.0,17.0,51,0.00,,,0.00,654.000000,,2013-04-25 15:21:00,
2013-04-25 11:53:00,55.0,36.0,-100.00,North,358,8.0,17.0,49,0.00,,,0.00,792.000000,,2013-04-25 15:53:00,
2013-04-25 12:03:00,55.0,36.0,-100.00,North,358,8.0,17.0,49,0.00,,,0.00,792.000000,,2013-04-25 16:03:00,
2013-04-25 12:13:00,55.0,36.0,-100.00,North,358,8.0,17.0,49,0.00,,,0.00,792.000000,,2013-04-25 16:13:00,
2013-04-25 12:24:00,55.0,36.0,-100.00,North,358,8.0,17.0,49,0.00,,,0.00,792.000000,,2013-04-25 16:24:00,
2013-04-25 12:53:00,57.0,39.0,-100.00,North,3,6.0,17.0,50,0.00,,,0.00,915.000000,,2013-04-25 16:53:00,
2013-04-25 13:02:00,57.0,39.0,-100.00,North,3,6.0,17.0,50,0.00,,,0.00,915.000000,,2013-04-25 17:02:00,
2013-04-25 13:12:00,57.0,39.0,-100.00,North,3,6.0,17.0,50,0.00,,,0.00,915.000000,,2013-04-25 17:12:00,
2013-04-25 13:22:00,57.0,39.0,-100.00,North,3,6.0,17.0,50,0.00,,,0.00,915.000000,,2013-04-25 17:22:00,
2013-04-25 13:53:00,59.0,40.0,-100.00,NNE,19,5.0,12.0,49,0.00,,,0.00,856.000000,,2013-04-25 17:53:00,
2013-04-25 14:02:00,59.0,40.0,-100.00,NNE,19,5.0,12.0,49,0.00,,,0.00,856.000000,,2013-04-25 18:02:00,
2013-04-25 14:11:00,59.0,40.0,-100.00,NNE,19,5.0,12.0,49,0.00,,,0.00,856.000000,,2013-04-25 18:11:00,
2013-04-25 14:22:00,59.0,40.0,-100.00,NNE,19,5.0,12.0,49,0.00,,,0.00,856.000000,,2013-04-25 18:22:00,
2013-04-25 14:53:00,59.0,39.0,-100.00,NNE,29,5.0,10.0,47,0.00,,,0.00,940.000000,,2013-04-25 18:53:00,
2013-04-25 15:02:00,59.0,39.0,-100.00,NNE,29,5.0,10.0,47,0.00,,,0.00,940.000000,,2013-04-25 19:02:00,
2013-04-25 15:12:00,59.0,39.0,-100.00,NNE,29,5.0,10.0,47,0.00,,,0.00,940.000000,,2013-04-25 19:12:00,
2013-04-25 15:21:00,59.0,39.0,-100.00,NNE,29,5.0,10.0,47,0.00,,,0.00,940.000000,,2013-04-25 19:21:00,
2013-04-25 15:52:00,59.0,38.0,-100.00,ENE,59,5.0,10.0,45,0.00,,,0.00,840.000000,,2013-04-25 19:52:00,
2013-04-25 16:02:00,59.0,38.0,-100.00,ENE,59,5.0,10.0,45,0.00,,,0.00,840.000000,,2013-04-25 20:02:00,
2013-04-25 16:11:00,59.0,38.0,-100.00,ENE,59,5.0,10.0,45,0.00,,,0.00,840.000000,,2013-04-25 20:11:00,
2013-04-25 16:22:00,59.0,38.0,-100.00,ENE,59,5.0,10.0,45,0.00,,,0.00,840.000000,,2013-04-25 20:22:00,
2013-04-25 16:52:00,61.0,36.0,-100.00,NE,46,4.0,9.0,39,0.00,,,0.00,713.000000,,2013-04-25 20:52:00,
2013-04-25 17:01:00,61.0,36.0,-100.00,NE,46,4.0,9.0,39,0.00,,,0.00,713.000000,,2013-04-25 21:01:00,
2013-04-25 17:11:00,61.0,36.0,-100.00,NE,46,4.0,9.0,39,0.00,,,0.00,713.000000,,2013-04-25 21:11:00,
2013-04-25 17:22:00,61.0,36.0,-100.00,NE,46,4.0,9.0,39,0.00,,,0.00,713.000000,,2013-04-25 21:22:00,
2013-04-25 17:53:00,61.0,36.0,-100.00,ENE,67,4.0,9.0,39,0.00,,,0.00,540.000000,,2013-04-25 21:53:00,
2013-04-25 18:03:00,61.0,36.0,-100.00,ENE,67,4.0,9.0,39,0.00,,,0.00,540.000000,,2013-04-25 22:03:00,
2013-04-25 18:12:00,61.0,36.0,-100.00,ENE,67,4.0,9.0,39,0.00,,,0.00,540.000000,,2013-04-25 22:12:00,
2013-04-25 18:22:00,61.0,36.0,-100.00,ENE,67,4.0,9.0,39,0.00,,,0.00,540.000000,,2013-04-25 22:22:00,
2013-04-25 18:53:00,60.0,33.0,-100.00,East,87,3.0,8.0,36,0.00,,,0.00,335.000000,,2013-04-25 22:53:00,
2013-04-25 19:02:00,60.0,33.0,-100.00,East,87,3.0,8.0,36,0.00,,,0.00,335.000000,,2013-04-25 23:02:00,
2013-04-25 19:12:00,60.0,33.0,-100.00,East,87,3.0,8.0,36,0.00,,,0.00,335.000000,,2013-04-25 23:12:00,
2013-04-25 19:22:00,60.0,33.0,-100.00,East,87,3.0,8.0,36,0.00,,,0.00,335.000000,,2013-04-25 23:22:00,
2013-04-25 19:52:00,58.0,37.0,-100.00,ESE,119,4.0,8.0,46,0.00,,,0.00,125.000000,,2013-04-25 23:52:00,
2013-04-25 20:01:00,58.0,37.0,-100.00,ESE,119,4.0,8.0,46,0.00,,,0.00,125.000000,,2013-04-26 00:01:00,
2013-04-25 20:11:00,58.0,37.0,-100.00,ESE,119,4.0,8.0,46,0.00,,,0.00,125.000000,,2013-04-26 00:11:00,
2013-04-25 20:21:00,58.0,37.0,-100.00,ESE,119,4.0,8.0,46,0.00,,,0.00,125.000000,,2013-04-26 00:21:00,
2013-04-25 20:52:00,53.0,37.0,-100.00,SSE,166,2.0,8.0,55,0.00,,,0.00,5.000000,,2013-04-26 00:52:00,
2013-04-25 21:01:00,53.0,37.0,-100.00,SSE,166,2.0,8.0,55,0.00,,,0.00,5.000000,,2013-04-26 01:01:00,
2013-04-25 21:11:00,53.0,37.0,-100.00,SSE,166,2.0,8.0,55,0.00,,,0.00,5.000000,,2013-04-26 01:11:00,
2013-04-25 21:21:00,53.0,37.0,-100.00,SSE,166,2.0,8.0,55,0.00,,,0.00,5.000000,,2013-04-26 01:21:00,
2013-04-25 21:52:00,50.0,37.0,-100.00,SW,215,2.0,7.0,61,0.00,,,0.00,0.000000,,2013-04-26 01:52:00,
2013-04-25 22:02:00,50.0,37.0,-100.00,SW,215,2.0,7.0,61,0.00,,,0.00,0.000000,,2013-04-26 02:02:00,
2013-04-25 22:12:00,50.0,37.0,-100.00,SW,215,2.0,7.0,61,0.00,,,0.00,0.000000,,2013-04-26 02:12:00,
2013-04-25 22:21:00,50.0,37.0,-100.00,SW,215,2.0,7.0,61,0.00,,,0.00,0.000000,,2013-04-26 02:21:00,
2013-04-25 22:52:00,48.0,38.0,-100.00,SSW,203,2.0,6.0,68,0.00,,,0.00,0.000000,,2013-04-26 02:52:00,
2013-04-25 23:01:00,48.0,38.0,-100.00,SSW,203,2.0,6.0,68,0.00,,,0.00,0.000000,,2013-04-26 03:01:00,
2013-04-25 23:11:00,48.0,38.0,-100.00,SSW,203,2.0,6.0,68,0.00,,,0.00,0.000000,,2013-04-26 03:11:00,
2013-04-25 23:22:00,48.0,38.0,-100.00,SSW,203,2.0,6.0,68,0.00,,,0.00,0.000000,,2013-04-26 03:22:00,
2013-04-25 23:53:00,46.0,39.0,-100.00,SW,220,2.0,6.0,75,0.00,,,0.00,0.000000,,2013-04-26 03:53:00,